{"data":{"norad_id":51650,"epoch":"2026-09-20T04:57:36.366624Z","epoch_age_seconds":51304,"freshness":"FRESH","line1":"1 51650U 22012AE  26263.20667091  .00000184  00000+0  44130-3 0  9991","line2":"2 51650  87.9179 347.0094 0001762 105.4452 254.6874 13.17649710226188","mean_motion":13.1764971,"eccentricity":0.0001762,"inclination_deg":87.9179,"raan_deg":347.0094,"arg_perigee_deg":105.4452,"mean_anomaly_deg":254.6874,"bstar":0.0004413,"rev_number":22618,"period_min":109.28549439744,"perigee_km":1192.3763803255,"apogee_km":1195.0446993985,"semimajor_km":7571.847539862,"source":"CELESTRAK","updated_at":"2026-09-20T09:00:44.713414Z"}}